Year,Month,Day,Hour,Minute,Value (Times are PST for temperature in C)
2013,08,26,00,00,12.40
2013,08,26,00,01,12.40
2013,08,26,00,02,12.40
2013,08,26,00,03,12.40
2013,08,26,00,04,12.40
2013,08,26,00,05,12.40
2013,08,26,00,06,12.40
2013,08,26,00,07,12.40
2013,08,26,00,08,12.40
2013,08,26,00,09,12.40
2013,08,26,00,10,12.40
2013,08,26,00,11,12.40
2013,08,26,00,12,12.40
2013,08,26,00,13,12.40
2013,08,26,00,14,12.40
2013,08,26,00,15,12.30
2013,08,26,00,16,12.30
2013,08,26,00,17,12.30
2013,08,26,00,18,12.30
2013,08,26,00,19,12.30
2013,08,26,00,20,12.30
2013,08,26,00,21,12.30
2013,08,26,00,22,12.30
2013,08,26,00,23,12.30
2013,08,26,00,24,12.20
2013,08,26,00,25,12.20
2013,08,26,00,26,12.20
2013,08,26,00,27,12.20
2013,08,26,00,28,12.20
2013,08,26,00,29,12.20
2013,08,26,00,30,12.20
2013,08,26,00,31,12.20
2013,08,26,00,32,12.20
2013,08,26,00,33,12.20
2013,08,26,00,34,12.20
2013,08,26,00,35,12.20
2013,08,26,00,36,12.20
2013,08,26,00,37,12.20
2013,08,26,00,38,12.20
2013,08,26,00,39,12.20
2013,08,26,00,40,12.20
2013,08,26,00,41,12.20
2013,08,26,00,42,12.20
2013,08,26,00,43,12.20
2013,08,26,00,44,12.20
2013,08,26,00,45,12.20
2013,08,26,00,46,12.10
2013,08,26,00,47,12.10
2013,08,26,00,48,12.10
2013,08,26,00,49,12.10
2013,08,26,00,50,12.10
2013,08,26,00,51,12.10
2013,08,26,00,52,12.10
2013,08,26,00,53,12.10
2013,08,26,00,54,12.10
2013,08,26,00,55,12.10
2013,08,26,00,56,12.10
2013,08,26,00,57,12.10
2013,08,26,00,58,12.10
2013,08,26,00,59,12.00
2013,08,26,01,00,12.00
2013,08,26,01,01,11.90
2013,08,26,01,02,11.90
2013,08,26,01,03,11.90
2013,08,26,01,04,11.90
2013,08,26,01,05,11.90
2013,08,26,01,06,11.80
2013,08,26,01,07,11.80
2013,08,26,01,08,11.80
2013,08,26,01,09,11.80
2013,08,26,01,10,11.80
2013,08,26,01,11,11.80
2013,08,26,01,12,11.80
2013,08,26,01,13,11.80
2013,08,26,01,14,11.80
2013,08,26,01,15,11.80
2013,08,26,01,16,11.80
2013,08,26,01,17,11.80
2013,08,26,01,18,11.80
2013,08,26,01,19,11.80
2013,08,26,01,20,11.80
2013,08,26,01,21,11.80
2013,08,26,01,22,11.80
2013,08,26,01,23,11.80
2013,08,26,01,24,11.80
2013,08,26,01,25,11.80
2013,08,26,01,26,11.90
2013,08,26,01,27,11.90
2013,08,26,01,28,11.90
2013,08,26,01,29,11.90
2013,08,26,01,30,11.90
2013,08,26,01,31,11.90
2013,08,26,01,32,11.90
2013,08,26,01,33,11.90
2013,08,26,01,34,11.90
2013,08,26,01,35,11.90
2013,08,26,01,36,11.90
2013,08,26,01,37,12.00
2013,08,26,01,38,12.00
2013,08,26,01,39,12.10
2013,08,26,01,40,12.10
2013,08,26,01,41,12.10
2013,08,26,01,42,12.10
2013,08,26,01,43,12.10
2013,08,26,01,44,12.10
2013,08,26,01,45,12.10
2013,08,26,01,46,12.10
2013,08,26,01,47,12.10
2013,08,26,01,48,12.10
2013,08,26,01,49,12.10
2013,08,26,01,50,12.10
2013,08,26,01,51,12.10
2013,08,26,01,52,12.10
2013,08,26,01,53,12.00
2013,08,26,01,54,12.00
2013,08,26,01,55,12.00
2013,08,26,01,56,12.00
2013,08,26,01,57,12.00
2013,08,26,01,58,12.00
2013,08,26,01,59,11.90
2013,08,26,02,00,11.90
2013,08,26,02,01,11.90
2013,08,26,02,02,11.90
2013,08,26,02,03,11.90
2013,08,26,02,04,11.90
2013,08,26,02,05,11.80
2013,08,26,02,06,11.80
2013,08,26,02,07,11.80
2013,08,26,02,08,11.80
2013,08,26,02,09,11.80
2013,08,26,02,10,11.80
2013,08,26,02,11,11.80
2013,08,26,02,12,11.80
2013,08,26,02,13,11.70
2013,08,26,02,14,11.70
2013,08,26,02,15,11.70
2013,08,26,02,16,11.80
2013,08,26,02,17,11.80
2013,08,26,02,18,11.80
2013,08,26,02,19,11.80
2013,08,26,02,20,11.80
2013,08,26,02,21,11.80
2013,08,26,02,22,11.80
2013,08,26,02,23,11.80
2013,08,26,02,24,11.80
2013,08,26,02,25,11.80
2013,08,26,02,26,11.80
2013,08,26,02,27,11.80
2013,08,26,02,28,11.80
2013,08,26,02,29,11.80
2013,08,26,02,30,11.80
2013,08,26,02,31,11.80
2013,08,26,02,32,11.80
2013,08,26,02,33,11.80
2013,08,26,02,34,11.70
2013,08,26,02,35,11.70
2013,08,26,02,36,11.70
2013,08,26,02,37,11.70
2013,08,26,02,38,11.70
2013,08,26,02,39,11.70
2013,08,26,02,40,11.70
2013,08,26,02,41,11.70
2013,08,26,02,42,11.70
2013,08,26,02,43,11.70
2013,08,26,02,44,11.70
2013,08,26,02,45,11.70
2013,08,26,02,46,11.70
2013,08,26,02,47,11.70
2013,08,26,02,48,11.70
2013,08,26,02,49,11.70
2013,08,26,02,50,11.70
2013,08,26,02,51,11.70
2013,08,26,02,52,11.70
2013,08,26,02,53,11.70
2013,08,26,02,54,11.70
2013,08,26,02,55,11.70
2013,08,26,02,56,11.60
2013,08,26,02,57,11.60
2013,08,26,02,58,11.60
2013,08,26,02,59,11.60
2013,08,26,03,00,11.60
2013,08,26,03,01,11.60
2013,08,26,03,02,11.60
2013,08,26,03,03,11.60
2013,08,26,03,04,11.50
2013,08,26,03,05,11.50
2013,08,26,03,06,11.50
2013,08,26,03,07,11.50
2013,08,26,03,08,11.50
2013,08,26,03,09,11.50
2013,08,26,03,10,11.50
2013,08,26,03,11,11.40
2013,08,26,03,12,11.40
2013,08,26,03,13,11.40
2013,08,26,03,14,11.40
2013,08,26,03,15,11.40
2013,08,26,03,16,11.40
2013,08,26,03,17,11.40
2013,08,26,03,18,11.40
2013,08,26,03,19,11.40
2013,08,26,03,20,11.40
2013,08,26,03,21,11.40
2013,08,26,03,22,11.40
2013,08,26,03,23,11.40
2013,08,26,03,24,11.40
2013,08,26,03,25,11.30
2013,08,26,03,26,11.30
2013,08,26,03,27,11.30
2013,08,26,03,28,11.30
2013,08,26,03,29,11.30
2013,08,26,03,30,11.30
2013,08,26,03,31,11.20
2013,08,26,03,32,11.20
2013,08,26,03,33,11.20
2013,08,26,03,34,11.20
2013,08,26,03,35,11.20
2013,08,26,03,36,11.20
2013,08,26,03,37,11.10
2013,08,26,03,38,11.10
2013,08,26,03,39,11.10
2013,08,26,03,40,11.10
2013,08,26,03,41,11.10
2013,08,26,03,42,11.10
2013,08,26,03,43,11.10
2013,08,26,03,44,11.00
2013,08,26,03,45,11.00
2013,08,26,03,46,11.00
2013,08,26,03,47,11.00
2013,08,26,03,48,11.00
2013,08,26,03,49,10.90
2013,08,26,03,50,10.90
2013,08,26,03,51,10.90
2013,08,26,03,52,10.90
2013,08,26,03,53,10.90
2013,08,26,03,54,10.90
2013,08,26,03,55,10.90
2013,08,26,03,56,10.90
2013,08,26,03,57,11.00
2013,08,26,03,58,11.00
2013,08,26,03,59,11.00
2013,08,26,04,00,11.00
2013,08,26,04,01,11.00
2013,08,26,04,02,11.00
2013,08,26,04,03,11.00
2013,08,26,04,04,11.00
2013,08,26,04,05,11.00
2013,08,26,04,06,11.00
2013,08,26,04,07,11.00
2013,08,26,04,08,11.00
2013,08,26,04,09,11.00
2013,08,26,04,10,11.00
2013,08,26,04,11,11.00
2013,08,26,04,12,11.00
2013,08,26,04,13,11.00
2013,08,26,04,14,11.00
2013,08,26,04,15,11.00
2013,08,26,04,16,11.00
2013,08,26,04,17,11.00
2013,08,26,04,18,11.00
2013,08,26,04,19,11.00
2013,08,26,04,20,11.00
2013,08,26,04,21,11.00
2013,08,26,04,22,11.00
2013,08,26,04,23,11.00
2013,08,26,04,24,11.00
2013,08,26,04,25,10.90
2013,08,26,04,26,10.90
2013,08,26,04,27,10.90
2013,08,26,04,28,10.90
2013,08,26,04,29,10.90
2013,08,26,04,30,10.90
2013,08,26,04,31,10.90
2013,08,26,04,32,10.90
2013,08,26,04,33,10.90
2013,08,26,04,34,10.90
2013,08,26,04,35,10.90
2013,08,26,04,36,10.80
2013,08,26,04,37,10.80
2013,08,26,04,38,10.80
2013,08,26,04,39,10.80
2013,08,26,04,40,10.80
2013,08,26,04,41,10.80
2013,08,26,04,42,10.80
2013,08,26,04,43,10.80
2013,08,26,04,44,10.70
2013,08,26,04,45,10.70
2013,08,26,04,46,10.70
2013,08,26,04,47,10.70
2013,08,26,04,48,10.70
2013,08,26,04,49,10.70
2013,08,26,04,50,10.70
2013,08,26,04,51,10.60
2013,08,26,04,52,10.60
2013,08,26,04,53,10.60
2013,08,26,04,54,10.60
2013,08,26,04,55,10.60
2013,08,26,04,56,10.60
2013,08,26,04,57,10.50
2013,08,26,04,58,10.50
2013,08,26,04,59,10.50
2013,08,26,05,00,10.50
2013,08,26,05,01,10.50
2013,08,26,05,02,10.40
2013,08,26,05,03,10.40
2013,08,26,05,04,10.40
2013,08,26,05,05,10.40
2013,08,26,05,06,10.40
2013,08,26,05,07,10.40
2013,08,26,05,08,10.40
2013,08,26,05,09,10.40
2013,08,26,05,10,10.40
2013,08,26,05,11,10.40
2013,08,26,05,12,10.40
2013,08,26,05,13,10.40
2013,08,26,05,14,10.40
2013,08,26,05,15,10.30
2013,08,26,05,16,10.30
2013,08,26,05,17,10.30
2013,08,26,05,18,10.30
2013,08,26,05,19,10.30
2013,08,26,05,20,10.20
2013,08,26,05,21,10.20
2013,08,26,05,22,10.20
2013,08,26,05,23,10.20
2013,08,26,05,24,10.20
2013,08,26,05,25,10.20
2013,08,26,05,26,10.20
2013,08,26,05,27,10.20
2013,08,26,05,28,10.20
2013,08,26,05,29,10.20
2013,08,26,05,30,10.20
2013,08,26,05,31,10.20
2013,08,26,05,32,10.20
2013,08,26,05,33,10.10
2013,08,26,05,34,10.10
2013,08,26,05,35,10.10
2013,08,26,05,36,10.20
2013,08,26,05,37,10.20
2013,08,26,05,38,10.20
2013,08,26,05,39,10.20
2013,08,26,05,40,10.20
2013,08,26,05,41,10.10
2013,08,26,05,42,10.10
2013,08,26,05,43,10.10
2013,08,26,05,44,10.10
2013,08,26,05,45,10.10
2013,08,26,05,46,10.10
2013,08,26,05,47,10.10
2013,08,26,05,48,10.10
2013,08,26,05,49,10.10
2013,08,26,05,50,10.10
2013,08,26,05,51,10.20
2013,08,26,05,52,10.20
2013,08,26,05,53,10.20
2013,08,26,05,54,10.20
2013,08,26,05,55,10.20
2013,08,26,05,56,10.20
2013,08,26,05,57,10.20
2013,08,26,05,58,10.20
2013,08,26,05,59,10.30
2013,08,26,06,00,10.30
2013,08,26,06,01,10.30
2013,08,26,06,02,10.30
2013,08,26,06,03,10.30
2013,08,26,06,04,10.30
2013,08,26,06,05,10.30
2013,08,26,06,06,10.40
2013,08,26,06,07,10.40
2013,08,26,06,08,10.40
2013,08,26,06,09,10.40
2013,08,26,06,10,10.30
2013,08,26,06,11,10.30
2013,08,26,06,12,10.30
2013,08,26,06,13,10.30
2013,08,26,06,14,10.30
2013,08,26,06,15,10.20
2013,08,26,06,16,10.20
2013,08,26,06,17,10.20
2013,08,26,06,18,10.20
2013,08,26,06,19,10.20
2013,08,26,06,20,10.20
2013,08,26,06,21,10.20
2013,08,26,06,22,10.30
2013,08,26,06,23,10.30
2013,08,26,06,24,10.30
2013,08,26,06,25,10.30
2013,08,26,06,26,10.30
2013,08,26,06,27,10.30
2013,08,26,06,28,10.30
2013,08,26,06,29,10.20
2013,08,26,06,30,10.20
2013,08,26,06,31,10.20
2013,08,26,06,32,10.20
2013,08,26,06,33,10.20
2013,08,26,06,34,10.10
2013,08,26,06,35,10.10
2013,08,26,06,36,10.10
2013,08,26,06,37,10.10
2013,08,26,06,38,10.10
2013,08,26,06,39,10.10
2013,08,26,06,40,10.10
2013,08,26,06,41,10.10
2013,08,26,06,42,10.10
2013,08,26,06,43,10.10
2013,08,26,06,44,10.10
2013,08,26,06,45,10.10
2013,08,26,06,46,10.10
2013,08,26,06,47,10.10
2013,08,26,06,48,10.10
2013,08,26,06,49,10.10
2013,08,26,06,50,10.10
2013,08,26,06,51,10.10
2013,08,26,06,52,10.10
2013,08,26,06,53,10.10
2013,08,26,06,54,10.10
2013,08,26,06,55,10.10
2013,08,26,06,56,10.10
2013,08,26,06,57,10.10
2013,08,26,06,58,10.20
2013,08,26,06,59,10.20
2013,08,26,07,00,10.20
2013,08,26,07,01,10.20
2013,08,26,07,02,10.20
2013,08,26,07,03,10.20
2013,08,26,07,04,10.20
2013,08,26,07,05,10.20
2013,08,26,07,06,10.20
2013,08,26,07,07,10.30
2013,08,26,07,08,10.30
2013,08,26,07,09,10.30
2013,08,26,07,10,10.30
2013,08,26,07,11,10.30
2013,08,26,07,12,10.30
2013,08,26,07,13,10.40
2013,08,26,07,14,10.40
2013,08,26,07,15,10.50
2013,08,26,07,16,10.50
2013,08,26,07,17,10.50
2013,08,26,07,18,10.50
2013,08,26,07,19,10.60
2013,08,26,07,20,10.60
2013,08,26,07,21,10.60
2013,08,26,07,22,10.60
2013,08,26,07,23,10.70
2013,08,26,07,24,10.70
2013,08,26,07,25,10.70
2013,08,26,07,26,10.70
2013,08,26,07,27,10.70
2013,08,26,07,28,10.80
2013,08,26,07,29,10.80
2013,08,26,07,30,10.80
2013,08,26,07,31,10.90
2013,08,26,07,32,11.00
2013,08,26,07,33,11.00
2013,08,26,07,34,11.10
2013,08,26,07,35,11.20
2013,08,26,07,36,11.20
2013,08,26,07,37,11.30
2013,08,26,07,38,11.30
2013,08,26,07,39,11.40
2013,08,26,07,40,11.40
2013,08,26,07,41,11.40
2013,08,26,07,42,11.50
2013,08,26,07,43,11.50
2013,08,26,07,44,11.60
2013,08,26,07,45,11.60
2013,08,26,07,46,11.60
2013,08,26,07,47,11.70
2013,08,26,07,48,11.70
2013,08,26,07,49,11.80
2013,08,26,07,50,11.90
2013,08,26,07,51,11.90
2013,08,26,07,52,12.00
2013,08,26,07,53,12.10
2013,08,26,07,54,12.10
2013,08,26,07,55,12.20
2013,08,26,07,56,12.20
2013,08,26,07,57,12.20
2013,08,26,07,58,12.30
2013,08,26,07,59,12.40
2013,08,26,08,00,12.40
2013,08,26,08,01,12.50
2013,08,26,08,02,12.50
2013,08,26,08,03,12.60
2013,08,26,08,04,12.60
2013,08,26,08,05,12.70
2013,08,26,08,06,12.70
2013,08,26,08,07,12.70
2013,08,26,08,08,12.70
2013,08,26,08,09,12.70
2013,08,26,08,10,12.70
2013,08,26,08,11,12.80
2013,08,26,08,12,12.80
2013,08,26,08,13,12.80
2013,08,26,08,14,12.80
2013,08,26,08,15,12.80
2013,08,26,08,16,12.80
2013,08,26,08,17,12.80
2013,08,26,08,18,12.80
2013,08,26,08,19,12.80
2013,08,26,08,20,12.80
2013,08,26,08,21,12.80
2013,08,26,08,22,12.90
2013,08,26,08,23,12.90
2013,08,26,08,24,12.90
2013,08,26,08,25,12.90
2013,08,26,08,26,12.90
2013,08,26,08,27,12.90
2013,08,26,08,28,12.90
2013,08,26,08,29,12.90
2013,08,26,08,30,12.90
2013,08,26,08,31,12.90
2013,08,26,08,32,12.90
2013,08,26,08,33,12.90
2013,08,26,08,34,12.90
2013,08,26,08,35,12.90
2013,08,26,08,36,13.00
2013,08,26,08,37,13.00
2013,08,26,08,38,13.10
2013,08,26,08,39,13.10
2013,08,26,08,40,13.20
2013,08,26,08,41,13.30
2013,08,26,08,42,13.40
2013,08,26,08,43,13.40
2013,08,26,08,44,13.50
2013,08,26,08,45,13.60
2013,08,26,08,46,13.70
2013,08,26,08,47,13.70
2013,08,26,08,48,13.80
2013,08,26,08,49,13.90
2013,08,26,08,50,13.90
2013,08,26,08,51,13.90
2013,08,26,08,52,14.00
2013,08,26,08,53,14.00
2013,08,26,08,54,14.10
2013,08,26,08,55,14.20
2013,08,26,08,56,14.20
2013,08,26,08,57,14.30
2013,08,26,08,58,14.30
2013,08,26,08,59,14.40
2013,08,26,09,00,14.40
2013,08,26,09,01,14.40
2013,08,26,09,02,14.50
2013,08,26,09,03,14.50
2013,08,26,09,04,14.50
2013,08,26,09,05,14.60
2013,08,26,09,06,14.60
2013,08,26,09,07,14.60
2013,08,26,09,08,14.70
2013,08,26,09,09,14.70
2013,08,26,09,10,14.80
2013,08,26,09,11,14.80
2013,08,26,09,12,14.90
2013,08,26,09,13,14.90
2013,08,26,09,14,14.90
2013,08,26,09,15,14.90
2013,08,26,09,16,15.00
2013,08,26,09,17,15.00
2013,08,26,09,18,15.00
2013,08,26,09,19,15.00
2013,08,26,09,20,15.00
2013,08,26,09,21,15.10
2013,08,26,09,22,15.30
2013,08,26,09,23,15.40
2013,08,26,09,24,15.50
2013,08,26,09,25,15.70
2013,08,26,09,26,15.80
2013,08,26,09,27,15.80
2013,08,26,09,28,15.90
2013,08,26,09,29,15.90
2013,08,26,09,30,15.90
2013,08,26,09,31,15.80
2013,08,26,09,32,15.80
2013,08,26,09,33,15.80
2013,08,26,09,34,15.80
2013,08,26,09,35,15.80
2013,08,26,09,36,15.80
2013,08,26,09,37,15.80
2013,08,26,09,38,15.90
2013,08,26,09,39,15.90
2013,08,26,09,40,16.00
2013,08,26,09,41,16.00
2013,08,26,09,42,16.10
2013,08,26,09,43,16.20
2013,08,26,09,44,16.20
2013,08,26,09,45,16.30
2013,08,26,09,46,16.30
2013,08,26,09,47,16.40
2013,08,26,09,48,16.40
2013,08,26,09,49,16.50
2013,08,26,09,50,16.50
2013,08,26,09,51,16.60
2013,08,26,09,52,16.60
2013,08,26,09,53,16.60
2013,08,26,09,54,16.70
2013,08,26,09,55,16.70
2013,08,26,09,56,16.70
2013,08,26,09,57,16.70
2013,08,26,09,58,16.70
2013,08,26,09,59,16.70
2013,08,26,10,00,16.70
2013,08,26,10,01,16.70
2013,08,26,10,02,16.60
2013,08,26,10,03,16.60
2013,08,26,10,04,16.50
2013,08,26,10,05,16.50
2013,08,26,10,06,16.40
2013,08,26,10,07,16.40
2013,08,26,10,08,16.40
2013,08,26,10,09,16.30
2013,08,26,10,10,16.20
2013,08,26,10,11,16.20
2013,08,26,10,12,16.20
2013,08,26,10,13,16.20
2013,08,26,10,14,16.20
2013,08,26,10,15,16.20
2013,08,26,10,16,16.10
2013,08,26,10,17,16.10
2013,08,26,10,18,16.10
2013,08,26,10,19,16.10
2013,08,26,10,20,16.10
2013,08,26,10,21,16.10
2013,08,26,10,22,16.20
2013,08,26,10,23,16.30
2013,08,26,10,24,16.30
2013,08,26,10,25,16.40
2013,08,26,10,26,16.40
2013,08,26,10,27,16.50
2013,08,26,10,28,16.50
2013,08,26,10,29,16.50
2013,08,26,10,30,16.50
2013,08,26,10,31,16.50
2013,08,26,10,32,16.40
2013,08,26,10,33,16.40
2013,08,26,10,34,16.40
2013,08,26,10,35,16.40
2013,08,26,10,36,16.40
2013,08,26,10,37,16.40
2013,08,26,10,38,16.40
2013,08,26,10,39,16.40
2013,08,26,10,40,16.40
2013,08,26,10,41,16.30
2013,08,26,10,42,16.30
2013,08,26,10,43,16.30
2013,08,26,10,44,16.30
2013,08,26,10,45,16.30
2013,08,26,10,46,16.30
2013,08,26,10,47,16.30
2013,08,26,10,48,16.30
2013,08,26,10,49,16.20
2013,08,26,10,50,16.20
2013,08,26,10,51,16.20
2013,08,26,10,52,16.20
2013,08,26,10,53,16.10
2013,08,26,10,54,16.10
2013,08,26,10,55,16.10
2013,08,26,10,56,16.10
2013,08,26,10,57,16.10
2013,08,26,10,58,16.00
2013,08,26,10,59,15.90
2013,08,26,11,00,15.80
2013,08,26,11,01,15.80
2013,08,26,11,02,15.70
2013,08,26,11,03,15.70
2013,08,26,11,04,15.60
2013,08,26,11,05,15.60
2013,08,26,11,06,15.60
2013,08,26,11,07,15.60
2013,08,26,11,08,15.70
2013,08,26,11,09,15.80
2013,08,26,11,10,15.80
2013,08,26,11,11,15.90
2013,08,26,11,12,15.90
2013,08,26,11,13,16.00
2013,08,26,11,14,16.00
2013,08,26,11,15,15.90
2013,08,26,11,16,15.90
2013,08,26,11,17,16.00
2013,08,26,11,18,16.00
2013,08,26,11,19,16.00
2013,08,26,11,20,16.10
2013,08,26,11,21,16.10
2013,08,26,11,22,16.20
2013,08,26,11,23,16.30
2013,08,26,11,24,16.30
2013,08,26,11,25,16.50
2013,08,26,11,26,16.60
2013,08,26,11,27,16.80
2013,08,26,11,28,16.90
2013,08,26,11,29,17.00
2013,08,26,11,30,17.00
2013,08,26,11,31,17.00
2013,08,26,11,32,17.00
2013,08,26,11,33,17.00
2013,08,26,11,34,17.10
2013,08,26,11,35,17.10
2013,08,26,11,36,17.20
2013,08,26,11,37,17.40
2013,08,26,11,38,17.40
2013,08,26,11,39,17.40
2013,08,26,11,40,17.40
2013,08,26,11,41,17.50
2013,08,26,11,42,17.50
2013,08,26,11,43,17.50
2013,08,26,11,44,17.50
2013,08,26,11,45,17.40
2013,08,26,11,46,17.40
2013,08,26,11,47,17.30
2013,08,26,11,48,17.30
2013,08,26,11,49,17.20
2013,08,26,11,50,17.20
2013,08,26,11,51,17.20
2013,08,26,11,52,17.30
2013,08,26,11,53,17.40
2013,08,26,11,54,17.40
2013,08,26,11,55,17.40
2013,08,26,11,56,17.40
2013,08,26,11,57,17.40
2013,08,26,11,58,17.40
2013,08,26,11,59,17.40
2013,08,26,12,00,17.40
2013,08,26,12,01,17.40
2013,08,26,12,02,17.40
2013,08,26,12,03,17.40
2013,08,26,12,04,17.30
2013,08,26,12,05,17.30
2013,08,26,12,06,17.20
2013,08,26,12,07,17.20
2013,08,26,12,08,17.20
2013,08,26,12,09,17.10
2013,08,26,12,10,17.10
2013,08,26,12,11,17.10
2013,08,26,12,12,17.00
2013,08,26,12,13,16.90
2013,08,26,12,14,16.90
2013,08,26,12,15,16.90
2013,08,26,12,16,16.90
2013,08,26,12,17,16.90
2013,08,26,12,18,16.90
2013,08,26,12,19,16.90
2013,08,26,12,20,16.90
2013,08,26,12,21,16.90
2013,08,26,12,22,16.90
2013,08,26,12,23,17.00
2013,08,26,12,24,17.10
2013,08,26,12,25,17.10
2013,08,26,12,26,17.10
2013,08,26,12,27,17.10
2013,08,26,12,28,17.20
2013,08,26,12,29,17.20
2013,08,26,12,30,17.20
2013,08,26,12,31,17.20
2013,08,26,12,32,17.20
2013,08,26,12,33,17.20
2013,08,26,12,34,17.20
2013,08,26,12,35,17.20
2013,08,26,12,36,17.20
2013,08,26,12,37,17.20
2013,08,26,12,38,17.30
2013,08,26,12,39,17.30
2013,08,26,12,40,17.30
2013,08,26,12,41,17.30
2013,08,26,12,42,17.30
2013,08,26,12,43,17.30
2013,08,26,12,44,17.30
2013,08,26,12,45,17.30
2013,08,26,12,46,17.30
2013,08,26,12,47,17.30
2013,08,26,12,48,17.30
2013,08,26,12,49,17.30
2013,08,26,12,50,17.30
2013,08,26,12,51,17.40
2013,08,26,12,52,17.40
2013,08,26,12,53,17.30
2013,08,26,12,54,17.30
2013,08,26,12,55,17.30
2013,08,26,12,56,17.30
2013,08,26,12,57,17.30
2013,08,26,12,58,17.30
2013,08,26,12,59,17.40
2013,08,26,13,00,17.50
2013,08,26,13,01,17.60
2013,08,26,13,02,17.60
2013,08,26,13,03,17.70
2013,08,26,13,04,17.80
2013,08,26,13,05,17.90
2013,08,26,13,06,18.00
2013,08,26,13,07,18.10
2013,08,26,13,08,18.20
2013,08,26,13,09,18.30
2013,08,26,13,10,18.40
2013,08,26,13,11,18.40
2013,08,26,13,12,18.50
2013,08,26,13,13,18.60
2013,08,26,13,14,18.60
2013,08,26,13,15,18.60
2013,08,26,13,16,18.70
2013,08,26,13,17,18.70
2013,08,26,13,18,18.70
2013,08,26,13,19,18.70
2013,08,26,13,20,18.70
2013,08,26,13,21,18.70
2013,08,26,13,22,18.70
2013,08,26,13,23,18.70
2013,08,26,13,24,18.70
2013,08,26,13,25,18.70
2013,08,26,13,26,18.70
2013,08,26,13,27,18.80
2013,08,26,13,28,18.80
2013,08,26,13,29,18.80
2013,08,26,13,30,18.80
2013,08,26,13,31,18.90
2013,08,26,13,32,18.90
2013,08,26,13,33,18.90
2013,08,26,13,34,19.00
2013,08,26,13,35,19.00
2013,08,26,13,36,19.10
2013,08,26,13,37,19.10
2013,08,26,13,38,19.10
2013,08,26,13,39,19.10
2013,08,26,13,40,19.10
2013,08,26,13,41,19.50
2013,08,26,13,42,19.60
2013,08,26,13,43,19.80
2013,08,26,13,44,19.90
2013,08,26,13,45,20.10
2013,08,26,13,46,20.20
2013,08,26,13,47,20.20
2013,08,26,13,48,20.20
2013,08,26,13,49,20.20
2013,08,26,13,50,20.20
2013,08,26,13,51,20.20
2013,08,26,13,52,20.20
2013,08,26,13,53,20.30
2013,08,26,13,54,20.40
2013,08,26,13,55,20.60
2013,08,26,13,56,20.60
2013,08,26,13,57,20.60
2013,08,26,13,58,20.60
2013,08,26,13,59,20.50
2013,08,26,14,00,20.40
2013,08,26,14,01,20.40
2013,08,26,14,02,20.40
2013,08,26,14,03,20.40
2013,08,26,14,04,20.30
2013,08,26,14,05,20.30
2013,08,26,14,06,20.40
2013,08,26,14,07,20.40
2013,08,26,14,08,20.40
2013,08,26,14,09,20.40
2013,08,26,14,10,20.30
2013,08,26,14,11,20.40
2013,08,26,14,12,20.50
2013,08,26,14,13,20.60
2013,08,26,14,14,20.70
2013,08,26,14,15,20.80
2013,08,26,14,16,20.80
2013,08,26,14,17,20.80
2013,08,26,14,18,20.80
2013,08,26,14,19,20.80
2013,08,26,14,20,20.80
2013,08,26,14,21,20.80
2013,08,26,14,22,20.80
2013,08,26,14,23,20.80
2013,08,26,14,24,20.90
2013,08,26,14,25,20.90
2013,08,26,14,26,20.90
2013,08,26,14,27,21.00
2013,08,26,14,28,21.00
2013,08,26,14,29,21.00
2013,08,26,14,30,20.90
2013,08,26,14,31,20.70
2013,08,26,14,32,20.50
2013,08,26,14,33,20.30
2013,08,26,14,34,20.10
2013,08,26,14,35,19.90
2013,08,26,14,36,19.90
2013,08,26,14,37,19.80
2013,08,26,14,38,19.80
2013,08,26,14,39,19.70
2013,08,26,14,40,19.70
2013,08,26,14,41,19.70
2013,08,26,14,42,19.60
2013,08,26,14,43,19.60
2013,08,26,14,44,19.50
2013,08,26,14,45,19.50
2013,08,26,14,46,19.60
2013,08,26,14,47,19.70
2013,08,26,14,48,19.70
2013,08,26,14,49,19.80
2013,08,26,14,50,19.80
2013,08,26,14,51,19.90
2013,08,26,14,52,19.90
2013,08,26,14,53,19.90
2013,08,26,14,54,19.90
2013,08,26,14,55,19.80
2013,08,26,14,56,19.80
2013,08,26,14,57,19.70
2013,08,26,14,58,19.70
2013,08,26,14,59,19.60
2013,08,26,15,00,19.50
2013,08,26,15,01,19.40
2013,08,26,15,02,19.40
2013,08,26,15,03,19.50
2013,08,26,15,04,19.50
2013,08,26,15,05,19.60
2013,08,26,15,06,19.60
2013,08,26,15,07,19.60
2013,08,26,15,08,19.60
2013,08,26,15,09,19.60
2013,08,26,15,10,19.60
2013,08,26,15,11,19.60
2013,08,26,15,12,19.50
2013,08,26,15,13,19.50
2013,08,26,15,14,19.40
2013,08,26,15,15,19.40
2013,08,26,15,16,19.40
2013,08,26,15,17,19.40
2013,08,26,15,18,19.40
2013,08,26,15,19,19.40
2013,08,26,15,20,19.40
2013,08,26,15,21,19.30
2013,08,26,15,22,19.30
2013,08,26,15,23,19.30
2013,08,26,15,24,19.20
2013,08,26,15,25,19.20
2013,08,26,15,26,19.10
2013,08,26,15,27,19.00
2013,08,26,15,28,18.90
2013,08,26,15,29,18.80
2013,08,26,15,30,18.60
2013,08,26,15,31,18.50
2013,08,26,15,32,18.40
2013,08,26,15,33,18.30
2013,08,26,15,34,18.20
2013,08,26,15,35,18.20
2013,08,26,15,36,18.10
2013,08,26,15,37,18.10
2013,08,26,15,38,18.00
2013,08,26,15,39,18.00
2013,08,26,15,40,17.90
2013,08,26,15,41,17.90
2013,08,26,15,42,17.90
2013,08,26,15,43,17.90
2013,08,26,15,44,17.80
2013,08,26,15,45,17.80
2013,08,26,15,46,17.80
2013,08,26,15,47,17.80
2013,08,26,15,48,17.90
2013,08,26,15,49,17.90
2013,08,26,15,50,17.90
2013,08,26,15,51,17.90
2013,08,26,15,52,18.00
2013,08,26,15,53,18.10
2013,08,26,15,54,18.10
2013,08,26,15,55,18.20
2013,08,26,15,56,18.20
2013,08,26,15,57,18.30
2013,08,26,15,58,18.30
2013,08,26,15,59,18.40
2013,08,26,16,00,18.40
2013,08,26,16,01,18.50
2013,08,26,16,02,18.50
2013,08,26,16,03,18.60
2013,08,26,16,04,18.60
2013,08,26,16,05,18.60
2013,08,26,16,06,18.70
2013,08,26,16,07,18.70
2013,08,26,16,08,18.70
2013,08,26,16,09,18.70
2013,08,26,16,10,18.70
2013,08,26,16,11,18.70
2013,08,26,16,12,18.70
2013,08,26,16,13,18.70
2013,08,26,16,14,18.70
2013,08,26,16,15,18.70
2013,08,26,16,16,18.70
2013,08,26,16,17,18.70
2013,08,26,16,18,18.70
2013,08,26,16,19,18.60
2013,08,26,16,20,18.60
2013,08,26,16,21,18.60
2013,08,26,16,22,18.60
2013,08,26,16,23,18.50
2013,08,26,16,24,18.50
2013,08,26,16,25,18.50
2013,08,26,16,26,18.50
2013,08,26,16,27,18.40
2013,08,26,16,28,18.30
2013,08,26,16,29,18.20
2013,08,26,16,30,18.00
2013,08,26,16,31,17.90
2013,08,26,16,32,17.70
2013,08,26,16,33,17.60
2013,08,26,16,34,17.50
2013,08,26,16,35,17.50
2013,08,26,16,36,17.40
2013,08,26,16,37,17.40
2013,08,26,16,38,17.30
2013,08,26,16,39,17.30
2013,08,26,16,40,17.40
2013,08,26,16,41,17.40
2013,08,26,16,42,17.40
2013,08,26,16,43,17.50
2013,08,26,16,44,17.50
2013,08,26,16,45,17.60
2013,08,26,16,46,17.70
2013,08,26,16,47,17.80
2013,08,26,16,48,17.80
2013,08,26,16,49,17.90
2013,08,26,16,50,18.00
2013,08,26,16,51,18.10
2013,08,26,16,52,18.10
2013,08,26,16,53,18.20
2013,08,26,16,54,18.30
2013,08,26,16,55,18.30
2013,08,26,16,56,18.40
2013,08,26,16,57,18.40
2013,08,26,16,58,18.50
2013,08,26,16,59,18.60
2013,08,26,17,00,18.60
2013,08,26,17,01,18.70
2013,08,26,17,02,18.70
2013,08,26,17,03,18.80
2013,08,26,17,04,18.80
2013,08,26,17,05,18.90
2013,08,26,17,06,18.90
2013,08,26,17,07,19.00
2013,08,26,17,08,19.10
2013,08,26,17,09,19.10
2013,08,26,17,10,19.20
2013,08,26,17,11,19.20
2013,08,26,17,12,19.30
2013,08,26,17,13,19.30
2013,08,26,17,14,19.40
2013,08,26,17,15,19.40
2013,08,26,17,16,19.50
2013,08,26,17,17,19.60
2013,08,26,17,18,19.60
2013,08,26,17,19,19.70